Theta_e
311 310 310 310 310 310 310 311 311 310 309 308 309 308 307 306 305 305 305 305 304 304 303 302 302 303 307 312 311 312 316 324 322 322 316 320 320 321 324 324 327 326 326 326
312 309 309 309 310 311 311 310 309 310 309 308 309 309 307 306 305 305 304 304 303 303 303 302 302 302 302 302 303 306 310 315 322 323 321 318 322 318 319 323 325 326 326 326
310 309 309 310 311 310 311 310 308 309 309 309 308 308 307 307 306 305 304 304 303 302 302 302 301 301 301 302 302 304 305 310 314 319 322 323 320 319 320 320 321 320 324 325
310 310 310 311 310 309 313 308 308 309 309 312 309 308 308 307 306 305 304 303 302 301 301 301 301 301 301 301 301 302 304 305 306 312 317 322 324 324 324 323 323 322 319 323
309 309 309 310 308 308 310 308 308 308 310 309 310 306 308 308 308 305 304 303 302 301 301 300 300 300 300 300 301 302 303 304 304 304 310 317 320 322 325 325 325 324 323 322
307 306 307 307 308 308 307 310 308 307 308 309 310 308 309 308 307 305 304 303 302 301 300 300 299 299 299 299 300 301 301 302 303 303 304 310 317 320 322 325 325 325 325 324
309 306 306 307 309 309 308 308 310 310 308 309 307 306 308 306 305 304 303 302 301 300 300 299 299 298 299 299 300 301 302 302 302 303 303 304 308 316 319 322 324 324 325 325
306 307 305 306 306 306 309 309 304 307 310 307 306 307 309 306 305 304 304 302 301 300 300 299 298 297 299 299 300 301 301 302 302 303 303 303 303 305 314 318 320 322 323 322
306 309 304 304 305 306 307 305 307 307 303 304 309 307 307 305 305 305 304 303 301 300 299 298 297 296 298 299 299 300 302 302 302 301 302 303 303 303 305 312 318 320 321 322
303 304 303 304 305 306 307 307 306 305 303 305 309 311 309 307 306 305 305 302 300 300 299 298 297 296 297 298 299 299 300 301 302 302 301 301 302 304 304 305 312 317 319 321
300 302 306 304 305 306 307 306 308 307 306 306 305 308 307 306 304 304 304 302 300 299 298 297 296 295 296 297 298 300 301 301 302 302 303 303 302 303 304 304 305 310 316 318
303 304 301 305 303 303 304 306 306 305 307 306 304 303 306 305 304 304 304 303 301 299 297 295 295 294 296 296 297 298 300 301 302 303 303 304 304 304 304 306 306 308 311 316
303 302 300 306 304 304 303 306 306 305 303 304 304 306 304 304 304 304 304 303 301 298 296 295 295 294 294 296 295 296 299 300 300 301 302 303 304 305 306 306 307 310 313 316
302 299 299 303 304 303 301 301 305 301 299 303 303 302 302 298 298 303 303 301 301 298 296 295 295 295 294 296 295 295 297 300 300 300 301 303 304 305 306 308 308 310 311 313
302 299 293 293 298 299 299 298 299 300 302 299 300 298 302 301 300 304 304 303 301 298 297 296 295 295 294 295 294 295 295 297 299 300 301 302 303 304 305 307 309 310 311 313
301 299 295 291 293 297 297 297 296 295 298 301 302 302 302 304 303 302 302 302 300 299 298 296 295 295 294 294 295 294 294 296 296 298 300 300 301 303 305 306 308 309 310 311
300 299 294 294 291 289 298 295 297 298 299 298 298 300 305 303 304 303 302 301 300 299 298 296 295 295 294 294 294 294 294 294 295 295 298 299 300 302 303 304 307 308 309 309
300 298 296 293 295 300 302 301 297 298 299 300 302 302 306 305 305 304 303 302 301 299 299 296 296 295 294 294 294 294 294 293 295 294 294 297 298 299 301 301 303 304 304 304
299 299 294 292 294 300 302 300 300 301 301 301 301 302 304 305 304 305 305 304 302 301 300 297 296 295 295 294 294 294 294 293 293 294 293 293 295 295 296 300 299 296 297 300
297 297 296 291 296 298 304 300 302 303 304 307 303 303 304 304 302 301 305 304 303 302 301 298 296 295 295 294 294 294 294 293 293 293 293 294 294 295 294 294 294 294 295 295
297 295 294 294 296 299 302 301 303 299 303 306 306 305 305 302 305 305 302 300 300 301 301 299 296 296 295 295 294 294 294 294 293 293 293 293 293 293 293 293 293 293 293 293
298 297 295 296 296 301 302 301 303 304 304 305 304 306 306 305 305 305 303 300 298 298 298 297 296 296 295 295 294 294 295 294 293 293 293 293 293 293 293 292 292 292 292 292
297 300 299 299 300 299 302 304 304 304 304 305 305 305 305 305 305 305 305 302 299 298 297 297 296 295 295 295 295 294 294 294 293 293 292 292 292 292 292 292 292 292 292 292
294 296 295 295 301 298 300 300 301 303 303 303 304 305 304 303 304 304 305 304 302 299 298 297 296 296 295 295 295 294 294 294 293 293 293 293 292 292 292 292 292 292 292 292
296 295 295 295 297 299 301 300 304 304 302 300 301 302 303 303 303 303 303 304 304 302 300 298 297 296 296 295 295 295 294 294 293 293 293 293 292 292 292 292 292 292 292 292
294 294 297 299 301 303 305 306 305 304 304 303 302 301 301 300 300 301 301 302 303 304 303 300 298 297 296 296 295 295 295 294 293 293 293 293 293 292 292 292 292 292 293 292
Wind_Speed
10 8 8 8 7 6 6 6 8 7 6 6 3 4 5 8 12 12 13 14 15 16 16 17 16 15 9 5 7 6 1 4 9 7 2 2 12 7 5 10 19 19 17 17
4 8 7 8 7 6 6 7 7 5 1 4 3 3 5 6 8 9 11 13 15 15 16 18 19 15 15 12 10 6 5 3 7 14 15 13 11 4 11 12 10 19 20 22
7 4 8 5 6 12 7 6 8 6 10 8 6 6 8 5 8 10 11 12 14 16 18 19 19 19 17 15 15 12 7 6 6 10 10 16 13 10 6 11 11 9 18 17
5 6 6 5 7 9 3 8 8 7 6 2 2 4 6 8 6 11 12 14 15 17 17 18 21 22 19 20 16 13 11 9 9 9 11 12 14 19 16 17 16 13 13 17
0 5 6 6 6 8 4 9 6 6 6 6 4 1 4 7 5 7 11 11 13 15 17 19 20 22 22 22 20 16 12 11 11 12 11 12 15 17 20 18 16 21 17 15
3 1 3 3 8 5 12 6 6 5 2 2 4 2 1 2 4 5 9 9 10 12 15 16 18 21 23 21 20 17 14 12 13 14 13 13 16 18 17 19 19 18 22 22
4 2 3 7 5 1 11 4 2 3 3 1 2 2 3 5 5 4 5 7 9 10 13 16 20 21 23 23 22 20 18 16 14 13 13 15 16 18 19 20 18 21 17 22
3 3 5 9 4 4 7 6 3 2 4 4 3 3 1 5 3 1 2 4 7 10 12 14 16 18 21 20 20 20 20 19 17 14 11 12 15 16 19 19 22 19 20 19
3 2 1 3 3 4 6 5 1 1 1 2 3 3 2 2 5 8 2 3 7 10 12 14 17 17 19 19 19 19 17 16 16 14 13 11 13 16 18 19 22 21 19 17
1 3 2 2 1 3 2 2 1 2 4 5 3 4 2 3 1 4 2 5 7 9 11 13 16 18 19 19 19 17 16 16 14 12 10 10 10 14 17 18 19 20 20 21
1 2 3 2 1 1 1 1 1 1 2 1 4 4 2 4 5 4 6 4 5 9 10 12 14 17 17 18 16 15 16 15 12 10 8 7 7 9 11 14 14 15 19 19
5 1 2 3 1 3 4 3 2 2 2 1 0 6 2 4 2 1 4 4 4 8 10 11 13 15 15 17 15 16 15 15 13 11 10 8 6 5 4 5 9 11 13 15
3 0 3 3 2 1 3 3 4 4 2 5 2 5 2 5 5 5 5 5 8 8 9 10 12 15 17 15 15 15 16 16 14 13 10 8 6 4 1 1 2 4 8 11
3 1 4 5 3 3 3 3 5 5 2 2 7 8 7 5 5 10 11 10 10 7 7 8 10 12 15 14 14 14 15 14 14 13 12 10 8 7 6 4 3 3 5 6
2 2 1 6 8 4 5 7 7 9 9 5 4 5 13 10 9 16 13 10 9 7 6 6 7 10 12 12 13 12 12 12 13 13 14 14 12 9 8 6 7 8 7 7
3 1 2 4 2 1 5 9 8 6 5 11 14 21 15 10 3 5 4 7 8 6 5 5 5 9 11 12 12 12 11 11 13 13 12 12 11 9 9 10 9 9 6 6
5 3 2 5 2 4 6 7 11 5 6 6 7 11 5 3 6 5 5 8 7 7 6 5 5 8 9 10 11 10 10 9 8 9 13 12 9 7 10 11 9 9 6 8
3 2 2 4 4 3 5 3 7 7 6 16 9 8 7 7 9 9 8 9 9 7 6 4 5 5 7 8 9 9 9 8 8 10 11 13 9 7 7 9 9 9 7 6
3 2 1 2 2 7 1 4 6 7 7 15 18 16 13 12 11 20 14 14 11 8 7 5 5 4 6 7 8 7 8 7 8 10 12 12 12 8 8 8 10 12 11 11
2 3 3 1 3 4 3 4 6 3 5 7 22 13 12 10 3 4 3 5 12 13 9 6 5 4 3 5 6 5 6 7 8 9 10 11 12 9 9 10 11 11 11 9
4 1 4 3 3 8 5 11 9 5 5 5 11 12 16 8 11 4 4 5 8 11 10 9 8 7 3 3 3 2 3 3 5 6 8 9 8 9 10 9 10 11 10 11
8 9 4 3 2 8 16 8 7 2 3 4 5 9 17 23 9 13 8 7 9 9 10 11 11 9 7 4 2 2 2 2 3 4 6 8 7 8 9 9 9 9 10 11
3 7 6 10 7 2 29 8 18 3 5 5 8 6 10 16 20 17 16 13 11 10 11 12 12 13 12 9 7 5 5 5 4 4 5 6 7 8 9 9 8 8 8 8
4 6 2 2 7 21 23 21 27 24 21 15 12 12 12 13 12 17 19 20 18 16 15 14 16 16 15 14 12 9 8 8 8 6 6 6 6 6 7 7 7 7 8 8
4 13 5 6 15 20 27 25 24 23 27 32 31 28 23 21 20 18 18 21 23 22 19 19 19 18 16 17 16 15 12 11 11 11 10 9 8 8 9 9 9 9 9 8
13 8 6 7 15 9 10 15 12 16 17 16 23 27 29 32 33 29 27 23 22 25 25 25 23 22 20 21 20 19 18 16 15 15 14 12 12 12 12 12 12 11 11 11
Wind_Direction
34 56 34 8 11 330 311 329 310 357 18 310 57 65 53 57 32 28 37 32 26 26 15 10 11 22 350 320 330 345 350 232 207 215 346 316 283 320 242 266 252 239 242 244
99 45 1 322 15 330 340 360 351 311 343 306 291 193 121 81 84 50 36 33 26 20 15 5 4 1 5 349 330 340 2 290 217 213 231 223 224 275 282 303 261 254 247 247
73 4 333 347 26 348 90 17 330 304 311 245 278 256 166 144 115 74 44 34 26 21 12 7 358 357 355 346 340 338 336 306 268 232 231 240 245 242 240 250 261 282 258 252
66 8 350 4 26 352 324 3 313 309 330 17 35 306 176 152 150 88 51 27 20 15 19 13 355 353 347 339 336 333 317 300 289 271 241 233 223 223 238 244 250 250 258 247
119 13 347 29 1 334 309 330 314 314 303 326 168 64 94 139 193 80 59 36 19 13 10 6 358 356 344 336 333 328 313 290 277 275 268 246 237 230 218 234 241 234 252 246
94 186 34 335 308 280 287 288 223 281 292 6 37 35 140 103 25 49 48 40 21 8 358 358 354 353 350 342 334 331 320 306 284 270 264 257 251 244 236 223 226 242 249 252
324 47 114 356 336 216 348 328 337 342 353 196 83 343 311 120 81 53 21 14 5 5 356 350 350 349 352 350 347 344 337 326 312 290 267 256 254 252 251 243 232 230 244 255
42 342 19 351 82 333 331 344 90 289 345 307 128 249 169 75 128 324 357 8 7 3 353 349 347 343 350 351 351 350 347 337 325 312 291 263 254 248 248 249 242 239 244 248
11 253 125 55 9 355 319 45 10 321 125 313 249 91 148 122 259 248 52 354 19 1 351 346 342 345 346 351 354 352 344 341 333 326 309 290 261 252 245 243 242 240 240 251
248 336 308 52 270 226 300 299 329 301 10 323 309 284 265 219 291 39 23 38 17 352 345 344 345 347 343 350 356 356 353 347 341 336 327 318 294 261 252 247 241 239 243 248
157 121 303 315 16 11 240 351 297 108 29 259 308 272 343 94 62 7 347 28 348 334 339 341 346 349 350 347 355 0 1 358 359 356 355 341 323 303 265 252 244 237 232 236
151 108 289 227 300 13 314 324 315 111 240 205 204 275 61 101 81 333 300 311 304 325 333 340 347 350 353 356 353 6 5 5 5 3 5 359 345 328 303 254 240 234 232 229
148 230 3 324 7 77 275 231 244 69 68 224 177 264 219 234 238 268 273 272 283 311 327 337 352 358 0 358 4 9 12 14 13 9 11 13 15 20 25 206 245 213 206 204
111 74 168 200 197 117 221 227 246 155 174 234 228 283 262 273 265 262 257 268 289 285 309 331 354 2 3 4 9 15 16 16 16 18 16 25 36 42 53 88 124 152 178 197
225 194 148 260 266 260 236 219 206 215 214 177 249 267 283 278 253 280 281 258 250 260 297 320 357 7 8 7 15 21 23 22 20 24 28 35 39 48 60 79 94 137 156 155
190 153 112 289 352 342 270 238 209 231 257 266 268 283 277 284 272 288 251 225 230 265 300 321 354 9 5 8 13 16 25 28 32 41 42 44 47 59 81 90 90 86 106 126
166 148 77 275 300 323 302 223 190 185 199 172 190 226 226 276 263 268 230 226 240 256 283 316 339 2 1 2 9 17 22 25 30 55 59 60 68 89 109 112 115 114 119 128
167 124 113 261 354 1 240 143 181 195 223 213 256 241 222 261 278 269 253 238 235 238 253 287 305 347 357 2 5 19 23 23 23 39 62 66 82 90 102 105 108 107 113 123
2 184 66 126 204 287 276 195 172 177 279 209 223 246 235 259 277 281 259 246 238 238 239 246 274 319 353 357 1 23 34 40 44 47 58 64 75 83 89 106 107 102 105 115
328 3 125 51 126 225 238 168 169 134 301 204 205 225 213 171 241 253 214 214 213 233 238 239 246 266 325 347 355 21 43 48 62 61 68 69 71 73 76 83 88 99 96 111
161 120 185 201 253 284 220 160 145 79 241 194 206 219 201 189 213 209 200 201 208 229 234 231 229 242 249 304 332 8 66 73 87 103 104 98 101 106 104 109 113 111 122 127
168 157 192 147 195 279 149 126 175 201 190 225 224 210 217 224 240 239 239 229 222 223 223 225 228 233 234 236 254 255 200 171 146 141 129 125 138 133 131 127 123 126 130 127
230 193 180 194 216 262 185 215 216 248 247 234 252 249 231 234 239 240 243 239 239 234 226 225 229 233 232 231 232 218 216 214 195 170 159 152 150 148 143 139 129 122 119 122
231 183 202 56 251 233 237 242 250 252 258 252 257 256 254 249 251 251 246 243 239 237 236 233 231 234 232 230 231 229 220 220 221 207 195 180 169 166 156 152 152 155 159 161
173 146 174 265 284 277 268 252 268 276 264 260 260 260 259 264 264 262 259 251 245 243 240 237 239 239 235 234 231 233 231 227 227 225 220 213 206 199 191 186 182 178 177 179
185 180 180 215 217 219 259 283 285 283 280 284 280 276 267 260 265 267 264 262 255 245 242 239 239 238 233 233 233 235 235 235 236 233 230 226 222 219 212 206 200 199 196 196